[[{"header":{"parameterUnit":"m.s-1","parameterCategory":1,"la1":30.2991,"la2":30.254,"lo1":-89.0895,"lo2":-89.0444,"dy":0.0017,"dx":0.0017,"nx":28,"ny":28,"refTime":"2025-02-26T03:00:00:Z","depth":0,"parameterNumber":2,"parameterNumberName":"U-component_of_WINDS"},"data":[0,0,0,0,0,0,0,0,0,0,0,0,0,0,0,0,0,0,0,0,0,0,0,0,0,0,0,0,0,0,0,0,0,0,0,0,0,0,0,0,0,0,0,0,0,0,0,0,0,0,0,0,0,0,0,0,0,0,-0.2235,-0.2234,0,-0.2155,-0.2154,-0.2153,-0.2103,-0.2103,-0.2103,-0.2103,-0.2019,-0.2017,-0.2015,0,0,0,0,0,0,0,0,0,0,0,0,0,-0.2343,-0.2341,-0.2235,-0.2234,-0.2233,-0.2155,-0.2154,-0.2153,-0.2103,-0.2103,-0.2103,-0.2102,-0.202,-0.2018,-0.2015,0,0,0,0,0,0,0,0,0,0,0,0,0,-0.2283,-0.2341,-0.2235,-0.2199,-0.2195,-0.2156,-0.2154,-0.2153,-0.2103,-0.2103,-0.2103,-0.2102,-0.2021,-0.2018,-0.2015,-0.2005,0,0,-0.2006,-0.2005,0,0,0,0,0,0,0,0,-0.2287,-0.2279,-0.2205,-0.2201,-0.2197,-0.2139,-0.2162,-0.2103,-0.2104,-0.2138,-0.2103,-0.2102,-0.2059,-0.2053,-0.2039,-0.2001,-0.1997,-0.2006,-0.2004,-0.2003,-0.2002,0,0,0,0,0,0,0,-0.2291,-0.2282,-0.2203,-0.2204,-0.2199,-0.2186,-0.2177,-0.215,-0.2102,-0.2135,-0.2131,-0.2123,-0.2057,-0.2042,-0.2037,-0.1996,-0.2006,-0.2003,-0.2001,-0.2,-0.1946,-0.1946,0,0,0,0,0,0,-0.2301,-0.2286,-0.2206,-0.2201,-0.2242,-0.2185,-0.2175,-0.2158,-0.2102,-0.2093,-0.2123,-0.2121,-0.2047,-0.204,-0.2034,-0.2018,-0.2003,-0.2,-0.1998,-0.1946,-0.1946,-0.1947,0,0,0,0,0,0,-0.2303,-0.2294,-0.2209,-0.2242,-0.2231,-0.2183,-0.2165,-0.2156,-0.2141,-0.2093,-0.2084,-0.2117,-0.2047,-0.2038,-0.2012,-0.2014,-0.1998,-0.1996,-0.1945,-0.1946,-0.1946,-0.1987,0,0,0,0,0,0,-0.2307,-0.2295,-0.2291,-0.2243,-0.2229,-0.219,-0.2165,-0.2155,-0.2137,-0.2133,-0.2085,-0.2076,-0.2046,-0.2017,-0.201,-0.201,-0.1994,-0.1945,-0.1946,-0.1946,-0.1985,-0.1989,-0.1992,0,0,0,0,0,-0.2311,-0.2305,-0.2291,-0.2282,-0.2223,-0.219,-0.2182,-0.2147,-0.2137,-0.2132,-0.2101,-0.2078,-0.2016,-0.2015,-0.2006,-0.2006,-0.1945,-0.1945,-0.1946,-0.1984,-0.1988,-0.1992,0,0,0,0,0,0,-0.2355,-0.2298,-0.2282,-0.2261,-0.2231,-0.2182,-0.2174,-0.2153,-0.2124,-0.2122,-0.2079,-0.2069,-0.2048,-0.2024,-0.2025,-0.1993,-0.1977,-0.1977,-0.2009,-0.2013,-0.2016,-0.2021,-0.1991,0,0,0,0,0,-0.2362,-0.234,-0.2292,-0.2278,-0.2264,-0.2222,-0.2206,-0.2182,-0.2149,-0.2136,-0.2103,-0.2071,-0.2044,-0.2027,-0.2,-0.1982,-0.197,-0.1977,-0.1981,-0.1984,-0.1983,-0.1971,-0.1973,-0.1949,-0.1949,-0.1949,0,0,-0.2377,-0.2343,-0.2332,-0.2286,-0.226,-0.2238,-0.2212,-0.2189,-0.2172,-0.2132,-0.2106,-0.2081,-0.2043,-0.2021,-0.201,-0.2001,-0.1987,-0.1984,-0.1987,-0.1985,-0.1972,-0.1975,-0.1977,-0.195,-0.1949,-0.1949,0,0,-0.2392,-0.2365,-0.235,-0.2325,-0.2285,-0.2258,-0.2255,-0.2209,-0.2191,-0.2164,-0.2134,-0.2113,-0.2068,-0.2042,-0.2023,-0.203,-0.2007,-0.2022,-0.2039,-0.2028,-0.203,-0.2031,-0.2033,-0.2034,-0.2022,-0.2022,-0.2022,0,-0.2415,-0.2381,-0.2345,-0.2325,-0.2305,-0.2269,-0.2254,-0.2231,-0.2184,-0.2172,-0.2163,-0.2105,-0.2077,-0.2049,-0.2051,-0.2037,-0.2031,-0.2027,-0.2033,-0.2034,-0.2035,-0.2036,-0.2037,-0.2024,-0.2024,-0.2024,-0.2023,0,-0.241,-0.2388,-0.238,-0.2337,-0.2317,-0.23,-0.2261,-0.2245,-0.2223,-0.2197,-0.2171,-0.2136,-0.2101,-0.2093,-0.2071,-0.2061,-0.2057,-0.2041,-0.2024,-0.204,-0.204,-0.204,-0.2027,-0.2026,-0.2026,-0.2025,0,0,-0.2449,-0.2388,-0.2386,-0.2366,-0.2321,-0.2302,-0.2283,-0.2249,-0.2236,-0.2206,-0.2189,-0.2152,-0.2137,-0.2116,-0.2091,-0.2082,-0.2089,-0.2066,-0.2065,-0.2071,-0.2076,-0.2087,-0.2088,-0.2074,-0.2074,-0.2074,-0.2078,0,-0.2457,-0.2421,-0.2389,-0.2364,-0.2343,-0.2308,-0.2292,-0.2262,-0.2237,-0.2215,-0.2187,-0.2161,-0.2144,-0.2131,-0.212,-0.209,-0.2089,-0.2089,-0.2056,-0.2056,-0.2066,-0.2088,-0.21,-0.2106,-0.2078,-0.2078,-0.2078,0,-0.2461,-0.2433,-0.2406,-0.2364,-0.2353,-0.2339,-0.2306,-0.2285,-0.2251,-0.2233,-0.221,-0.2184,-0.2162,-0.2149,-0.2118,-0.2119,-0.2104,-0.2087,-0.2087,-0.2081,-0.2067,-0.2082,-0.2107,-0.2108,-0.2078,-0.2078,-0.2078,0,-0.2491,-0.2447,-0.2425,-0.2409,-0.2359,-0.235,-0.2328,-0.2294,-0.2276,-0.2247,-0.2235,-0.2204,-0.2187,-0.2163,-0.213,-0.2123,-0.2102,-0.2086,-0.2086,-0.2087,-0.2082,-0.2082,-0.2103,-0.2074,-0.2074,-0.2074,-0.2074,0,-0.2502,-0.2487,-0.2438,-0.2424,-0.2407,-0.237,-0.2353,-0.2329,-0.2299,-0.228,-0.2249,-0.2232,-0.2189,-0.2167,-0.2141,-0.2118,-0.2111,-0.2096,-0.2089,-0.2098,-0.21,-0.2086,-0.2085,-0.2074,-0.2074,-0.2074,-0.2074,0,-0.2532,-0.2499,-0.2473,-0.2428,-0.2416,-0.2405,-0.2366,-0.2352,-0.2326,-0.2302,-0.2295,-0.2253,-0.2226,-0.219,-0.2151,-0.2134,-0.2114,-0.2104,-0.2126,-0.2122,-0.2123,-0.2123,-0.2135,-0.2135,-0.2108,-0.2108,-0.2108,0,-0.2541,-0.2529,-0.2483,-0.2468,-0.2448,-0.2425,-0.2406,-0.237,-0.2353,-0.2313,-0.2304,-0.2274,-0.2248,-0.2205,-0.2171,-0.2141,-0.213,-0.2136,-0.2125,-0.2134,-0.2128,-0.2129,-0.2128,-0.2138,-0.2139,-0.2139,-0.2139,0,-0.256,-0.2544,-0.2519,-0.2489,-0.2468,-0.2442,-0.2415,-0.2405,-0.2363,-0.2345,-0.2316,-0.2296,-0.2257,-0.2227,-0.2193,-0.2171,-0.2148,-0.2144,-0.2142,-0.215,-0.2163,-0.2155,-0.2132,-0.2143,-0.2143,-0.2142,-0.2142,-0.2142,-0.2579,-0.2566,-0.2532,-0.2505,-0.2481,-0.2457,-0.2441,-0.2413,-0.2389,-0.2354,-0.2335,-0.2307,-0.2274,-0.2226,-0.2204,-0.2182,-0.2173,-0.2171,-0.217,-0.217,-0.2172,-0.2168,-0.2176,-0.2176,-0.2175,-0.2175,-0.2175,0,-0.2595,-0.2572,-0.2548,-0.2511,-0.249,-0.2472,-0.2441,-0.2424,-0.24,-0.2371,-0.2347,-0.2314,-0.2286,-0.2251,-0.222,-0.2208,-0.2197,-0.2201,-0.2201,-0.2196,-0.2182,-0.2186,-0.2211,-0.2211,-0.2211,-0.2211,-0.2211,-0.2211,-0.2601,-0.2579,-0.2559,-0.2525,-0.2501,-0.2474,-0.2458,-0.2435,-0.2412,-0.2377,-0.2353,-0.2331,-0.2299,-0.2266,-0.2239,-0.223,-0.2219,-0.2226,-0.2214,-0.2201,-0.2197,-0.2194,-0.2198,-0.2225,-0.2225,-0.2229,-0.2229,-0.223]},{"header":{"parameterUnit":"m.s-1","parameterCategory":1,"la1":30.2991,"la2":30.254,"lo1":-89.0895,"lo2":-89.0444,"dy":0.0017,"dx":0.0017,"nx":28,"ny":28,"refTime":"2025-02-26T03:00:00:Z","depth":0,"parameterNumber":3,"parameterNumberName":"V-component_of_WINDS"},"data":[0,0,0,0,0,0,0,0,0,0,0,0,0,0,0,0,0,0,0,0,0,0,0,0,0,0,0,0,0,0,0,0,0,0,0,0,0,0,0,0,0,0,0,0,0,0,0,0,0,0,0,0,0,0,0,0,0,0,2.2329,2.2329,0,2.2274,2.2273,2.2272,2.23,2.2302,2.2303,2.2305,2.2243,2.224,2.2237,0,0,0,0,0,0,0,0,0,0,0,0,0,2.2457,2.2454,2.2329,2.2329,2.2328,2.2274,2.2273,2.2272,2.23,2.2302,2.2304,2.2305,2.2244,2.2241,2.2237,0,0,0,0,0,0,0,0,0,0,0,0,0,2.2401,2.2454,2.2329,2.2335,2.2335,2.2274,2.2273,2.2272,2.23,2.2302,2.2304,2.2306,2.2245,2.2241,2.2237,2.2165,0,0,2.2223,2.2221,0,0,0,0,0,0,0,0,2.2404,2.2397,2.2335,2.2335,2.2335,2.2296,2.2296,2.2236,2.2299,2.2313,2.2305,2.2307,2.2259,2.2253,2.2238,2.2162,2.2159,2.2223,2.222,2.2218,2.2217,0,0,0,0,0,0,0,2.2408,2.2399,2.2307,2.2334,2.2334,2.234,2.2335,2.2284,2.2274,2.2312,2.2314,2.2307,2.2259,2.2242,2.2237,2.2158,2.2223,2.2219,2.2216,2.2214,2.2022,2.202,0,0,0,0,0,0,2.2412,2.2402,2.2309,2.2305,2.2376,2.2336,2.233,2.2306,2.2275,2.2272,2.2305,2.2309,2.2249,2.2242,2.2235,2.215,2.2218,2.2214,2.2211,2.2025,2.2022,2.2019,0,0,0,0,0,0,2.2415,2.2404,2.2311,2.2354,2.2343,2.2331,2.2305,2.2304,2.2287,2.227,2.2268,2.229,2.225,2.2241,2.2183,2.2148,2.2212,2.2208,2.2027,2.2024,2.202,2.1978,0,0,0,0,0,0,2.2418,2.2404,2.2377,2.2354,2.2341,2.2261,2.2303,2.2301,2.228,2.2284,2.2255,2.2252,2.2251,2.2189,2.2178,2.2143,2.2204,2.2031,2.2026,2.2022,2.1983,2.1974,2.1966,0,0,0,0,0,2.2423,2.2366,2.2376,2.2365,2.2307,2.2259,2.2251,2.2252,2.2277,2.225,2.2239,2.2253,2.2154,2.2183,2.2171,2.2134,2.2033,2.2027,2.2022,2.1987,2.1976,2.1966,0,0,0,0,0,0,2.2384,2.2363,2.2374,2.2308,2.2285,2.2264,2.2229,2.224,2.2209,2.2213,2.2215,2.2208,2.2148,2.2135,2.2168,2.2063,2.2097,2.2089,2.2074,2.2064,2.2055,2.206,2.22,0,0,0,0,0,2.2369,2.2333,2.2316,2.2259,2.2248,2.224,2.2219,2.2222,2.2198,2.2188,2.2173,2.2148,2.2111,2.2086,2.2051,2.1981,2.1976,2.195,2.1941,2.1935,2.1927,2.1891,2.1879,2.2001,2.2001,2.2002,0,0,2.2335,2.2319,2.2296,2.2251,2.2234,2.2196,2.2232,2.2189,2.2161,2.2181,2.2126,2.2114,2.2086,2.2022,2.1993,2.2009,2.1893,2.1928,2.1922,2.1919,2.1884,2.1872,2.1862,2.1998,2.1998,2.1999,0,0,2.2255,2.2239,2.2191,2.2174,2.2148,2.2144,2.2132,2.2109,2.2103,2.2048,2.2063,2.2028,2.1964,2.1945,2.1926,2.184,2.1853,2.1829,2.1785,2.1749,2.1739,2.1731,2.1701,2.169,2.1822,2.1822,2.1822,0,2.2216,2.216,2.2165,2.2122,2.2102,2.2121,2.2073,2.2055,2.2018,2.2004,2.2023,2.1945,2.1927,2.1859,2.1839,2.1823,2.181,2.1832,2.1741,2.1732,2.1724,2.1696,2.1685,2.1819,2.1819,2.182,2.182,0,2.2114,2.2075,2.204,2.2006,2.1982,2.1937,2.1934,2.1909,2.1915,2.1909,2.1853,2.1833,2.1795,2.1779,2.1783,2.1712,2.1723,2.1741,2.1775,2.171,2.1683,2.1672,2.1815,2.1816,2.1817,2.1818,0,0,2.2007,2.1978,2.1965,2.1951,2.1925,2.1894,2.185,2.1815,2.1794,2.1768,2.1731,2.1678,2.1695,2.1674,2.1676,2.1645,2.158,2.1667,2.1667,2.1652,2.1501,2.1488,2.1475,2.1588,2.1586,2.1584,2.1504,0,2.1925,2.1849,2.1853,2.1781,2.1746,2.1764,2.1726,2.1705,2.1698,2.1667,2.1659,2.1621,2.1647,2.1635,2.1604,2.1594,2.1549,2.16,2.1553,2.1551,2.156,2.1461,2.1446,2.1371,2.1493,2.1491,2.149,0,2.182,2.1793,2.1719,2.17,2.1685,2.165,2.1619,2.1589,2.1566,2.1563,2.1541,2.1549,2.1504,2.1539,2.1477,2.1511,2.1492,2.1484,2.1481,2.1477,2.1517,2.1454,2.1347,2.1336,2.1473,2.1475,2.1476,0,2.175,2.1695,2.1644,2.1631,2.1608,2.1583,2.1572,2.1551,2.1531,2.1503,2.149,2.1456,2.1438,2.1412,2.141,2.1436,2.1348,2.1382,2.1344,2.1344,2.1324,2.1325,2.1213,2.1311,2.1311,2.1312,2.1312,0,2.1659,2.1613,2.1613,2.1582,2.1531,2.1535,2.1484,2.1475,2.1457,2.1424,2.1437,2.1405,2.1405,2.1373,2.1371,2.132,2.1312,2.1308,2.1308,2.1307,2.1307,2.1294,2.13,2.1309,2.1309,2.131,2.131,0,2.1572,2.157,2.1516,2.1499,2.1494,2.1457,2.1442,2.1412,2.1407,2.1365,2.1355,2.1347,2.131,2.1306,2.1262,2.1261,2.12,2.1205,2.1208,2.1209,2.1171,2.1175,2.1046,2.103,2.1138,2.1137,2.1137,0,2.1514,2.148,2.146,2.1439,2.1427,2.1394,2.1374,2.1377,2.1355,2.1328,2.1301,2.1265,2.1237,2.1176,2.1166,2.1132,2.1137,2.1094,2.1132,2.1133,2.1137,2.1139,2.1136,2.1087,2.1086,2.1085,2.1084,0,2.1412,2.1413,2.1384,2.1355,2.1331,2.1308,2.1286,2.1269,2.1269,2.1244,2.1207,2.1185,2.1142,2.1106,2.1074,2.1061,2.1072,2.1073,2.1062,2.106,2.1064,2.1062,2.1189,2.1075,2.1076,2.1077,2.1077,2.1078,2.1338,2.1309,2.1291,2.1259,2.1243,2.1223,2.1195,2.1188,2.1158,2.1124,2.1127,2.1086,2.1065,2.1024,2.1009,2.0976,2.099,2.0975,2.0971,2.0967,2.0964,2.1069,2.097,2.097,2.0971,2.0971,2.0971,0,2.1237,2.1227,2.1198,2.1168,2.1143,2.1158,2.1135,2.1113,2.1077,2.1058,2.1031,2.0989,2.0955,2.0942,2.0909,2.0886,2.089,2.0877,2.0878,2.0876,2.0952,2.0965,2.0874,2.0874,2.0874,2.0874,2.0874,2.0874,2.1182,2.1134,2.1133,2.1078,2.1068,2.103,2.1016,2.0997,2.0982,2.0935,2.0908,2.0901,2.0884,2.085,2.082,2.0817,2.0804,2.0789,2.0788,2.086,2.087,2.0879,2.0891,2.0786,2.0786,2.0714,2.0713,2.0713]}]]